[[{"header":{"parameterUnit":"m.s-1","parameterCategory":1,"la1":30.2991,"la2":30.254,"lo1":-89.0895,"lo2":-89.0444,"dx":0.0017,"dy":0.0017,"nx":28,"ny":28,"refTime":"2022-11-16T15:00:00:Z","depth":0,"parameterNumber":2,"parameterNumberName":"U-component_of_WINDS"},"data":[0,0,0,0,0,0,0,0,0,0,0,0,0,0,0,0,0,0,0,0,0,0,0,0,0,0,0,0,0,0,0,0,0,0,0,0,0,0,0,0,0,0,0,0,0,0,0,0,0,0,0,0,0,0,0,0,0,0,-4.315,-4.3151,0,-4.3227,-4.3228,-4.3229,-4.3064,-4.3059,-4.3053,-4.3048,-4.3128,-4.3135,-4.3142,0,0,0,0,0,0,0,0,0,0,0,0,0,-4.2859,-4.2865,-4.315,-4.3151,-4.3152,-4.3227,-4.3228,-4.3229,-4.3065,-4.3058,-4.3052,-4.3046,-4.3126,-4.3134,-4.3143,0,0,0,0,0,0,0,0,0,0,0,0,0,-4.2966,-4.2867,-4.315,-4.3079,-4.3073,-4.3227,-4.3228,-4.3229,-4.3066,-4.3058,-4.305,-4.3043,-4.3123,-4.3133,-4.3144,-4.337,0,0,-4.3176,-4.3181,0,0,0,0,0,0,0,0,-4.296,-4.2976,-4.3088,-4.3084,-4.3078,-4.3128,-4.3154,-4.3277,-4.3068,-4.3069,-4.3048,-4.3039,-4.3135,-4.3144,-4.3176,-4.3374,-4.3377,-4.3177,-4.3184,-4.3188,-4.3191,0,0,0,0,0,0,0,-4.2953,-4.2972,-4.318,-4.309,-4.3084,-4.3043,-4.3049,-4.3177,-4.3146,-4.3068,-4.3057,-4.3068,-4.313,-4.3166,-4.3177,-4.3378,-4.3177,-4.3187,-4.3193,-4.3197,-4.3763,-4.3771,0,0,0,0,0,0,-4.2954,-4.2967,-4.3178,-4.3183,-4.2998,-4.3055,-4.3062,-4.312,-4.3144,-4.314,-4.3075,-4.306,-4.3152,-4.3164,-4.3179,-4.3443,-4.3188,-4.3198,-4.3205,-4.3754,-4.3764,-4.3774,0,0,0,0,0,0,-4.2949,-4.2975,-4.3175,-4.3072,-4.3094,-4.3068,-4.3135,-4.3126,-4.3161,-4.3149,-4.3142,-4.3117,-4.3146,-4.3164,-4.3323,-4.3443,-4.3203,-4.3213,-4.3744,-4.3757,-4.3769,-4.3975,0,0,0,0,0,0,-4.2941,-4.2974,-4.306,-4.3075,-4.31,-4.3319,-4.3142,-4.3133,-4.318,-4.3161,-4.3187,-4.3183,-4.3141,-4.3308,-4.3334,-4.3454,-4.3221,-4.3733,-4.375,-4.3765,-4.3957,-4.3993,-4.4024,0,0,0,0,0,-4.2931,-4.3116,-4.3065,-4.3091,-4.3208,-4.3326,-4.3341,-4.3288,-4.319,-4.3276,-4.3268,-4.3182,-4.3426,-4.3326,-4.3353,-4.3479,-4.3725,-4.3745,-4.3764,-4.3942,-4.3986,-4.4024,0,0,0,0,0,0,-4.3116,-4.3116,-4.306,-4.3255,-4.3292,-4.3298,-4.3405,-4.3337,-4.3402,-4.3382,-4.3314,-4.3321,-4.3493,-4.3502,-4.339,-4.3697,-4.3559,-4.3585,-4.3685,-4.3727,-4.376,-4.3754,-4.323,0,0,0,0,0,-4.3179,-4.3276,-4.3271,-4.3443,-4.3464,-4.3432,-4.3482,-4.3438,-4.3473,-4.3488,-4.3491,-4.3529,-4.3613,-4.3671,-4.3748,-4.3958,-4.396,-4.4057,-4.4091,-4.4118,-4.4141,-4.425,-4.4293,-4.3837,-4.3837,-4.3837,0,0,-4.3312,-4.3323,-4.3389,-4.3481,-4.3504,-4.3605,-4.3446,-4.356,-4.3634,-4.3505,-4.3655,-4.3659,-4.3696,-4.3881,-4.3963,-4.3894,-4.4267,-4.4143,-4.4165,-4.4173,-4.4274,-4.4318,-4.4356,-4.3851,-4.3848,-4.3846,0,0,-4.3603,-4.3623,-4.3767,-4.3794,-4.383,-4.3807,-4.3842,-4.3859,-4.3856,-4.4005,-4.391,-4.3996,-4.4144,-4.4174,-4.4209,-4.4509,-4.4433,-4.4537,-4.4711,-4.4818,-4.4854,-4.4886,-4.4991,-4.503,-4.456,-4.456,-4.456,0,-4.3763,-4.3911,-4.3851,-4.3971,-4.4013,-4.39,-4.4045,-4.4073,-4.4134,-4.4166,-4.4087,-4.4268,-4.4286,-4.4475,-4.4548,-4.458,-4.4617,-4.4533,-4.4854,-4.4885,-4.4913,-4.5013,-4.5053,-4.4572,-4.4571,-4.457,-4.4569,0,-4.4104,-4.4209,-4.4321,-4.4381,-4.4436,-4.4569,-4.4527,-4.459,-4.4541,-4.4526,-4.4678,-4.4695,-4.4772,-4.4814,-4.4768,-4.4996,-4.4952,-4.4865,-4.4725,-4.497,-4.5062,-4.51,-4.459,-4.4586,-4.4582,-4.4579,0,0,-4.4516,-4.4539,-4.4581,-4.4606,-4.4638,-4.4717,-4.4843,-4.4918,-4.4973,-4.5018,-4.5121,-4.5248,-4.5167,-4.5206,-4.5162,-4.5256,-4.5491,-4.5157,-4.5157,-4.5217,-4.5741,-4.5805,-4.5851,-4.544,-4.5447,-4.5453,-4.5737,0,-4.4803,-4.502,-4.4968,-4.5182,-4.5277,-4.517,-4.5279,-4.531,-4.5299,-4.5377,-4.5364,-4.5455,-4.5342,-4.5365,-4.5453,-4.5444,-4.5595,-4.5422,-4.5534,-4.5539,-4.5527,-4.5899,-4.5968,-4.6236,-4.5773,-4.5779,-4.5784,0,-4.5168,-4.5225,-4.5449,-4.5463,-4.55,-4.56,-4.5663,-4.574,-4.5772,-4.5757,-4.58,-4.5737,-4.586,-4.5719,-4.5887,-4.5771,-4.5814,-4.5816,-4.5825,-4.5832,-4.5676,-4.5915,-4.632,-4.636,-4.584,-4.5836,-4.5832,0,-4.5443,-4.5577,-4.5727,-4.5752,-4.5773,-4.5845,-4.5856,-4.588,-4.5928,-4.5983,-4.6013,-4.6083,-4.6121,-4.6176,-4.6133,-4.6034,-4.6307,-4.6163,-4.6297,-4.6299,-4.6359,-4.6356,-4.6775,-4.639,-4.6389,-4.6388,-4.6387,0,-4.5768,-4.5909,-4.5851,-4.5943,-4.6097,-4.6036,-4.6189,-4.6188,-4.621,-4.63,-4.6212,-4.6298,-4.6236,-4.6317,-4.6284,-4.6427,-4.6445,-4.6435,-4.6425,-4.6443,-4.6444,-4.6469,-4.6448,-4.6399,-4.6396,-4.6394,-4.6392,0,-4.6102,-4.6069,-4.6225,-4.6231,-4.6236,-4.6349,-4.6353,-4.6438,-4.642,-4.6534,-4.6558,-4.6529,-4.6619,-4.6581,-4.6677,-4.6654,-4.6837,-4.6803,-4.6826,-4.6817,-4.6952,-4.6939,-4.7401,-4.7457,-4.7038,-4.7042,-4.7045,0,-4.6311,-4.6416,-4.6433,-4.6487,-4.6504,-4.6592,-4.664,-4.6583,-4.6636,-4.6679,-4.6759,-4.6841,-4.6903,-4.7052,-4.7039,-4.7111,-4.7077,-4.7233,-4.7087,-4.7101,-4.7077,-4.707,-4.7079,-4.7263,-4.7267,-4.7271,-4.7275,0,-4.6686,-4.6663,-4.6735,-4.6802,-4.6861,-4.6911,-4.6953,-4.7002,-4.6947,-4.7011,-4.7101,-4.715,-4.7246,-4.7328,-4.7391,-4.7401,-4.7329,-4.7321,-4.7355,-4.7374,-4.7382,-4.7377,-4.6905,-4.731,-4.7307,-4.7304,-4.7302,-4.7301,-4.6962,-4.7049,-4.7074,-4.7157,-4.7182,-4.7223,-4.7303,-4.7294,-4.7368,-4.7442,-4.7404,-4.7508,-4.7535,-4.7612,-4.7633,-4.7713,-4.7651,-4.7702,-4.7714,-4.7727,-4.7744,-4.7371,-4.7725,-4.7724,-4.7723,-4.7722,-4.7721,0,-4.7329,-4.734,-4.7417,-4.7477,-4.7542,-4.7468,-4.751,-4.7569,-4.7662,-4.7693,-4.7756,-4.7859,-4.7937,-4.7931,-4.8003,-4.8068,-4.8037,-4.8089,-4.8082,-4.8086,-4.7796,-4.7758,-4.8113,-4.8113,-4.8113,-4.8113,-4.8113,-4.8113,-4.7528,-4.7672,-4.7653,-4.7807,-4.7816,-4.7918,-4.7948,-4.7984,-4.8008,-4.8127,-4.8192,-4.8187,-4.8202,-4.8274,-4.8342,-4.8338,-4.8368,-4.8432,-4.8416,-4.8145,-4.8106,-4.8069,-4.8033,-4.844,-4.844,-4.8698,-4.87,-4.8702]},{"header":{"parameterUnit":"m.s-1","parameterCategory":1,"la1":30.2991,"la2":30.254,"lo1":-89.0895,"lo2":-89.0444,"dx":0.0017,"dy":0.0017,"nx":28,"ny":28,"refTime":"2022-11-16T15:00:00:Z","depth":0,"parameterNumber":3,"parameterNumberName":"V-component_of_WINDS"},"data":[0,0,0,0,0,0,0,0,0,0,0,0,0,0,0,0,0,0,0,0,0,0,0,0,0,0,0,0,0,0,0,0,0,0,0,0,0,0,0,0,0,0,0,0,0,0,0,0,0,0,0,0,0,0,0,0,0,0,-4.1734,-4.1735,0,-4.1798,-4.1798,-4.1799,-4.1744,-4.1741,-4.1739,-4.1737,-4.1799,-4.1803,-4.1807,0,0,0,0,0,0,0,0,0,0,0,0,0,-4.1561,-4.1564,-4.1734,-4.1735,-4.1736,-4.1797,-4.1798,-4.1799,-4.1744,-4.1741,-4.1739,-4.1736,-4.1798,-4.1803,-4.1807,0,0,0,0,0,0,0,0,0,0,0,0,0,-4.1631,-4.1566,-4.1734,-4.1716,-4.1715,-4.1797,-4.1798,-4.1799,-4.1745,-4.1741,-4.1738,-4.1735,-4.1797,-4.1802,-4.1808,-4.1911,0,0,-4.1825,-4.1828,0,0,0,0,0,0,0,0,-4.1627,-4.1638,-4.1718,-4.1717,-4.1716,-4.1759,-4.176,-4.1837,-4.1746,-4.1733,-4.1737,-4.1733,-4.1789,-4.1795,-4.1814,-4.1914,-4.1916,-4.1826,-4.1829,-4.1831,-4.1833,0,0,0,0,0,0,0,-4.1623,-4.1635,-4.1759,-4.1719,-4.1718,-4.1703,-4.1709,-4.1774,-4.1779,-4.1734,-4.173,-4.1739,-4.1788,-4.1809,-4.1815,-4.1917,-4.1825,-4.183,-4.1834,-4.1836,-4.21,-4.2104,0,0,0,0,0,0,-4.162,-4.1631,-4.1757,-4.1761,-4.1663,-4.1709,-4.1716,-4.1749,-4.1778,-4.178,-4.1741,-4.1736,-4.1801,-4.1809,-4.1817,-4.1937,-4.1831,-4.1837,-4.184,-4.2097,-4.2101,-4.2105,0,0,0,0,0,0,-4.1617,-4.1632,-4.1755,-4.1695,-4.171,-4.1715,-4.1753,-4.1752,-4.1773,-4.1784,-4.1784,-4.1762,-4.1798,-4.1809,-4.1887,-4.1938,-4.1839,-4.1844,-4.2092,-4.2098,-4.2103,-4.2179,0,0,0,0,0,0,-4.1612,-4.1631,-4.1672,-4.1696,-4.1713,-4.1826,-4.1756,-4.1756,-4.1783,-4.1776,-4.1804,-4.1805,-4.1796,-4.1879,-4.1893,-4.1944,-4.1849,-4.2088,-4.2095,-4.2101,-4.2172,-4.2186,-4.2199,0,0,0,0,0,-4.1606,-4.1691,-4.1674,-4.169,-4.1764,-4.1829,-4.1838,-4.1827,-4.1788,-4.1827,-4.1834,-4.1804,-4.1931,-4.1887,-4.1903,-4.1957,-4.2085,-4.2093,-4.2101,-4.2166,-4.2184,-4.2198,0,0,0,0,0,0,-4.1672,-4.1694,-4.1676,-4.1772,-4.1799,-4.1819,-4.1869,-4.1847,-4.1885,-4.1877,-4.1861,-4.1868,-4.1949,-4.1961,-4.1912,-4.2056,-4.2001,-4.2012,-4.2045,-4.2062,-4.2075,-4.207,-4.1854,0,0,0,0,0,-4.1698,-4.175,-4.1766,-4.1849,-4.1863,-4.1864,-4.1892,-4.1881,-4.1908,-4.1919,-4.1931,-4.1958,-4.2003,-4.2033,-4.2076,-4.2173,-4.2177,-4.2218,-4.2231,-4.2242,-4.2252,-4.23,-4.2318,-4.2132,-4.2132,-4.2131,0,0,-4.1752,-4.177,-4.1804,-4.1862,-4.1882,-4.1934,-4.1874,-4.1933,-4.197,-4.1928,-4.2001,-4.2011,-4.204,-4.2127,-4.2166,-4.2139,-4.2304,-4.2252,-4.2261,-4.2265,-4.2311,-4.2328,-4.2344,-4.2137,-4.2136,-4.2135,0,0,-4.1876,-4.1897,-4.1966,-4.1987,-4.2017,-4.2016,-4.2033,-4.2057,-4.2061,-4.2135,-4.2103,-4.2147,-4.2227,-4.2247,-4.2268,-4.2396,-4.2369,-4.241,-4.248,-4.2528,-4.2542,-4.2555,-4.2598,-4.2614,-4.242,-4.2421,-4.2421,0,-4.1939,-4.2018,-4.2005,-4.2065,-4.209,-4.2053,-4.2122,-4.2142,-4.2185,-4.2202,-4.2171,-4.2268,-4.2285,-4.2374,-4.2405,-4.2425,-4.2441,-4.2407,-4.2542,-4.2554,-4.2566,-4.2607,-4.2623,-4.2425,-4.2425,-4.2424,-4.2424,0,-4.2091,-4.2146,-4.2198,-4.224,-4.2271,-4.2335,-4.233,-4.2363,-4.2348,-4.235,-4.2424,-4.2442,-4.2486,-4.2507,-4.2495,-4.2594,-4.2576,-4.2544,-4.2488,-4.2589,-4.2626,-4.2642,-4.2432,-4.243,-4.2429,-4.2428,0,0,-4.2261,-4.2292,-4.2311,-4.2328,-4.2357,-4.2398,-4.2459,-4.2503,-4.253,-4.256,-4.2608,-4.2675,-4.2644,-4.2668,-4.2656,-4.2699,-4.2795,-4.2661,-4.2661,-4.2683,-4.2903,-4.2926,-4.2944,-4.2778,-4.2781,-4.2783,-4.29,0,-4.2384,-4.2491,-4.2479,-4.258,-4.2628,-4.2593,-4.2646,-4.2668,-4.2671,-4.2711,-4.2713,-4.276,-4.2717,-4.2731,-4.2771,-4.2775,-4.2839,-4.2767,-4.2821,-4.2823,-4.2813,-4.2965,-4.299,-4.3099,-4.2915,-4.2917,-4.2919,0,-4.2543,-4.2577,-4.2683,-4.2701,-4.2721,-4.2769,-4.2805,-4.2845,-4.2869,-4.2867,-4.2892,-4.2873,-4.2931,-4.2875,-4.2954,-4.2905,-4.2927,-4.2932,-4.2936,-4.2939,-4.2876,-4.297,-4.3134,-4.315,-4.2943,-4.2941,-4.2939,0,-4.2652,-4.2725,-4.2797,-4.2812,-4.2837,-4.287,-4.2882,-4.2902,-4.2928,-4.2959,-4.2975,-4.3014,-4.3034,-4.3063,-4.3053,-4.3014,-4.3134,-4.3077,-4.3132,-4.3132,-4.3158,-4.3156,-4.3326,-4.3175,-4.3175,-4.3175,-4.3174,0,-4.279,-4.2855,-4.2846,-4.289,-4.296,-4.2946,-4.3016,-4.3023,-4.3041,-4.3084,-4.3056,-4.3096,-4.3082,-4.3121,-4.3114,-4.3178,-4.3189,-4.3187,-4.3184,-4.3189,-4.3189,-4.3202,-4.3193,-4.3179,-4.3178,-4.3177,-4.3176,0,-4.2924,-4.2921,-4.2996,-4.3012,-4.3017,-4.3069,-4.3081,-4.3121,-4.3121,-4.3176,-4.3188,-4.3187,-4.3231,-4.3225,-4.3274,-4.3269,-4.3349,-4.3338,-4.3341,-4.3338,-4.3392,-4.3386,-4.3574,-4.3597,-4.3434,-4.3435,-4.3437,0,-4.3012,-4.3061,-4.3082,-4.3108,-4.3122,-4.3166,-4.3191,-4.3177,-4.3205,-4.3233,-4.3269,-4.3311,-4.3344,-4.3416,-4.3419,-4.3456,-4.3444,-4.3507,-4.3449,-4.3451,-4.3442,-4.3438,-4.3442,-4.3518,-4.352,-4.3522,-4.3523,0,-4.3167,-4.3161,-4.3199,-4.3236,-4.3267,-4.3295,-4.332,-4.3343,-4.3332,-4.3363,-4.3408,-4.3433,-4.3483,-4.3524,-4.3558,-4.3568,-4.3543,-4.3541,-4.3555,-4.356,-4.3559,-4.3557,-4.337,-4.3537,-4.3535,-4.3534,-4.3533,-4.3533,-4.3278,-4.3319,-4.3339,-4.3381,-4.3398,-4.3422,-4.3459,-4.3463,-4.35,-4.3539,-4.3529,-4.3579,-4.3598,-4.3641,-4.3654,-4.3692,-4.3668,-4.369,-4.3695,-4.37,-4.3705,-4.3554,-4.3698,-4.3698,-4.3698,-4.3697,-4.3697,0,-4.3429,-4.344,-4.3479,-4.3514,-4.3546,-4.352,-4.3546,-4.3574,-4.3619,-4.3639,-4.3671,-4.3721,-4.3759,-4.3765,-4.3801,-4.383,-4.3819,-4.384,-4.3836,-4.3838,-4.3725,-4.3708,-4.3848,-4.3847,-4.3847,-4.3847,-4.3847,-4.3847,-4.3512,-4.3578,-4.3575,-4.3648,-4.3658,-4.3706,-4.3723,-4.3743,-4.3759,-4.3816,-4.3848,-4.3851,-4.3864,-4.39,-4.3934,-4.3934,-4.3948,-4.3972,-4.3968,-4.3862,-4.3847,-4.3833,-4.3816,-4.3976,-4.3976,-4.4078,-4.4079,-4.408]}]]